Cloud_Cover
100 100 100 100 100 100 100 34 16 4 0 4 4 0 0 0 2 0 0 5 1 0 0 0 0 0 0 0 0 0 0 0 0 0 0 0 0 0 2 4 70 99 100
100 96 99 95 100 100 95 98 60 5 5 5 1 0 0 0 1 5 0 0 2 0 0 0 0 0 0 5 5 0 0 0 0 0 0 0 0 0 0 0 0 45 100
91 88 99 100 100 100 50 15 5 5 5 4 5 8 0 0 0 5 3 0 0 0 0 0 2 1 5 5 0 0 0 0 0 0 0 0 0 0 0 0 4 2 6
96 100 100 100 69 93 50 5 5 12 98 57 13 5 4 0 5 3 0 0 0 0 0 4 5 5 23 5 2 0 0 0 0 0 0 0 0 0 0 0 0 40 29
100 100 100 100 100 100 23 77 100 81 73 14 19 67 7 43 76 5 2 0 1 4 5 5 5 20 2 0 0 0 0 0 0 0 0 0 0 0 0 0 0 0 7
100 100 100 97 88 96 100 97 27 5 22 66 25 78 100 63 9 5 5 5 5 5 5 67 100 55 4 2 0 0 0 0 0 0 0 0 0 0 0 0 0 0 0
100 100 100 58 98 66 24 78 83 15 100 51 100 100 82 65 5 5 5 5 5 5 14 100 51 4 5 0 0 0 0 0 0 0 0 0 0 0 0 0 0 0 0
95 87 51 89 56 20 5 95 99 100 28 90 66 80 21 5 5 12 7 5 7 96 50 82 5 5 0 0 0 0 0 0 0 0 0 0 0 0 0 0 0 0 0
91 70 93 100 72 100 100 100 100 100 90 49 100 93 5 20 21 56 91 100 100 100 79 5 12 0 0 0 0 0 0 0 0 0 0 0 0 0 0 0 0 0 0
100 100 100 100 100 100 100 100 100 100 100 100 100 67 100 100 87 73 100 100 99 58 78 47 7 0 0 0 0 0 0 0 0 0 0 0 0 0 0 0 0 0 0
100 100 100 100 100 78 83 100 100 100 100 100 100 100 100 100 100 100 100 100 70 8 44 8 2 1 1 4 5 0 0 0 0 0 0 0 0 0 0 0 0 0 0
100 100 100 100 100 100 100 100 99 100 100 100 100 100 100 100 100 100 100 98 49 5 5 2 0 0 0 0 2 5 0 0 0 0 0 0 0 0 0 0 0 0 0
100 100 100 100 99 100 100 100 100 100 100 100 100 100 100 100 100 76 13 41 8 0 0 0 2 0 4 3 5 5 0 0 0 0 0 0 0 0 0 0 0 0 0
98 100 100 100 100 100 100 100 100 100 100 100 100 100 100 86 50 64 4 27 12 7 4 24 8 5 0 0 2 0 0 0 0 0 0 0 0 0 0 0 0 0 0
100 100 100 100 100 100 100 100 100 100 100 100 100 97 80 22 80 61 5 5 5 0 0 0 2 0 0 0 0 0 0 0 0 0 0 0 0 0 0 0 0 0 0
100 84 100 100 100 100 100 100 100 100 100 89 74 32 5 42 5 5 5 5 5 2 5 5 5 0 0 0 0 0 0 0 0 0 0 0 0 0 0 0 0 0 5
85 60 100 100 100 100 100 100 100 100 100 98 96 20 99 31 5 14 5 5 5 5 6 5 5 4 1 0 0 0 0 1 3 0 0 0 0 0 2 5 0 0 0
84 100 100 63 94 74 100 100 100 100 100 60 5 68 82 57 6 5 5 7 88 71 38 5 5 5 1 0 0 0 0 1 5 5 4 2 0 0 0 0 0 0 0
100 100 57 95 94 100 100 100 100 100 100 100 100 100 83 5 48 6 77 9 78 75 7 5 5 1 0 0 3 5 5 5 5 5 5 5 5 5 2 0 1 4 3
98 100 77 94 100 100 100 100 100 100 100 100 100 72 5 14 91 84 97 98 9 4 5 4 0 0 0 0 1 0 0 0 0 1 5 6 26 62 64 49 5 1 3
11 95 100 100 100 95 100 100 100 97 48 10 43 5 5 99 65 5 33 4 1 0 0 0 0 0 0 0 0 0 0 0 0 1 5 1 3 5 5 5 44 96 19
7 6 83 11 20 35 68 16 10 5 4 2 5 5 5 5 42 5 4 0 0 0 1 5 5 5 5 5 1 0 0 3 3 1 0 0 0 0 1 2 2 4 17
10 9 5 2 4 0 3 0 3 5 1 5 3 1 2 1 0 0 0 1 1 5 5 5 17 5 5 26 18 25 5 1 1 1 0 0 0 0 0 0 0 0 4
95 64 29 89 92 42 5 5 5 5 5 0 0 0 0 4 3 5 5 5 5 5 6 36 6 12 35 14 15 3 4 62 97 14 5 5 4 1 0 0 0 0 0
100 100 92 57 5 5 4 2 1 0 0 0 0 0 5 5 5 5 39 86 17 5 6 59 21 3 5 2 1 1 4 5 33 66 84 10 25 5 5 2 0 5 1
100 80 8 2 5 1 0 0 0 0 1 1 2 3 5 5 5 5 5 9 60 21 5 21 87 50 5 3 4 6 8 13 7 68 20 34 11 5 10 5 1 4 5